Theta_e
347 346 346 346 346 344 344 345 346 348 348 348 349 349 349 349 349 349 348 348 346 346 345 345 345 345 347 345 346 345 345 345 344 344 343 342 342 342 342 342 342 341 342 342 342 341 341 343 343 344 344 344 345 342 340 340 333 337 336 336 337 338
342 344 347 346 343 343 343 343 343 345 347 348 349 349 348 347 347 346 349 346 344 346 344 344 344 345 344 345 345 345 344 344 344 343 342 342 341 341 341 341 342 342 342 342 341 339 339 342 343 344 345 345 343 340 342 338 338 335 335 336 338 341
341 343 343 345 344 343 342 344 344 343 344 345 346 345 344 344 343 345 343 342 344 345 345 345 346 343 343 345 344 344 344 344 344 344 343 342 341 340 340 341 342 342 342 342 341 338 337 337 340 344 344 343 341 341 342 342 335 336 335 337 338 342
341 342 342 343 345 342 343 344 343 343 343 343 343 342 343 343 342 342 341 343 344 345 345 346 345 345 344 344 343 344 344 343 343 343 343 342 341 340 340 341 341 341 341 340 334 333 335 337 339 339 340 341 339 340 341 340 335 335 335 339 339 343
344 342 342 342 343 341 344 343 341 342 342 342 341 341 342 341 343 340 338 341 341 341 342 343 342 341 340 345 342 342 342 341 341 341 343 340 339 338 339 335 335 338 336 334 333 334 335 336 339 338 339 339 339 338 340 338 335 334 334 338 340 342
340 341 343 342 343 343 344 343 344 344 341 341 340 339 340 340 341 342 340 341 342 341 341 342 341 340 342 342 343 342 339 340 339 339 341 343 341 341 335 335 333 332 333 337 336 336 337 341 338 336 336 339 340 341 337 334 335 335 336 338 340 342
340 341 341 340 342 343 342 342 343 344 341 340 339 339 339 339 337 342 340 340 340 341 341 338 338 340 340 341 341 342 342 344 342 343 339 339 340 341 337 336 336 335 336 337 336 334 336 338 339 336 338 337 337 337 338 334 335 334 335 337 341 342
341 341 342 343 342 342 343 343 342 344 343 343 343 338 336 339 340 341 340 340 340 339 339 340 340 340 340 340 340 342 344 343 344 343 345 345 338 339 337 340 338 337 336 334 335 334 333 334 338 342 335 337 340 335 336 338 335 334 333 336 338 341
339 340 341 343 341 341 342 342 342 342 341 344 340 339 337 337 338 342 340 340 341 340 340 339 339 340 339 337 339 338 341 341 341 341 341 341 341 340 338 338 338 336 335 334 335 336 332 333 337 338 336 335 335 335 335 338 336 334 333 334 336 340
339 340 340 341 341 341 341 342 342 339 343 340 339 337 338 337 336 340 339 339 341 343 342 340 335 337 337 336 336 338 338 341 341 340 341 338 341 337 336 335 336 335 331 332 333 337 332 333 333 336 336 333 334 336 336 337 335 341 334 334 336 339
342 342 340 340 342 342 343 339 339 337 337 337 339 339 339 339 339 340 340 343 342 343 343 340 335 335 336 336 334 338 339 341 341 338 340 339 338 338 336 332 334 334 332 336 334 332 331 332 333 333 336 334 334 334 335 338 336 334 335 333 335 337
342 342 340 339 340 339 338 338 337 340 341 340 340 340 337 338 339 339 342 343 343 341 342 340 338 336 336 335 336 335 338 339 338 340 340 339 340 338 335 334 333 336 339 336 334 331 337 333 331 335 334 334 335 337 339 337 336 338 342 334 333 335
339 339 339 340 339 336 335 336 336 337 341 341 342 341 339 340 338 339 343 341 340 339 340 342 340 336 333 334 336 337 338 340 342 340 339 338 337 337 336 335 334 339 339 339 336 332 332 333 332 331 333 333 334 336 338 335 336 337 335 339 339 335
339 337 337 336 336 337 337 339 338 338 338 340 343 341 344 344 344 342 342 341 340 340 340 340 339 339 336 336 337 338 339 341 339 338 337 337 337 336 336 334 333 339 337 336 332 333 332 331 333 334 334 334 334 336 337 335 335 336 338 334 339 338
338 334 336 335 337 336 335 334 336 340 340 343 342 343 343 342 342 342 341 339 340 340 340 339 339 342 341 339 340 340 337 337 340 338 338 338 338 336 334 333 333 332 334 335 335 335 333 334 336 335 334 338 334 335 338 337 337 334 336 337 336 336
335 334 336 337 337 338 337 337 339 340 343 343 344 341 346 344 343 343 341 338 337 339 337 338 340 341 340 340 340 340 339 338 340 339 336 339 338 336 334 334 335 332 332 331 332 334 335 334 335 336 337 335 336 335 337 335 334 336 337 338 336 338
334 335 336 335 338 338 340 339 339 344 342 344 342 342 344 345 345 346 348 342 342 341 339 340 341 340 340 340 338 338 339 340 339 337 337 338 336 337 334 333 332 334 333 330 332 333 334 334 334 334 334 335 335 334 336 337 333 335 335 336 334 338
338 339 340 339 337 337 339 339 340 339 342 338 339 341 342 341 341 342 344 343 342 343 342 340 341 339 340 340 337 336 334 338 335 335 335 337 336 336 335 335 332 336 333 331 333 331 331 332 332 332 332 335 335 335 336 338 335 338 336 333 334 336
339 340 340 339 339 341 341 341 340 340 338 339 339 340 342 340 340 341 342 342 342 342 342 340 339 339 339 338 338 336 334 333 335 337 336 336 337 333 333 336 335 334 335 335 334 333 332 331 331 331 331 333 333 334 334 335 335 334 336 334 333 334
340 342 341 341 339 338 339 338 337 338 336 338 337 336 342 341 339 339 343 345 341 344 341 340 338 340 340 337 336 334 335 336 337 338 337 335 333 332 333 335 334 335 334 332 332 332 335 331 332 331 331 332 332 332 331 334 332 333 336 333 332 333
340 342 340 337 337 337 335 335 337 336 335 336 333 335 336 338 339 338 340 340 340 342 341 341 340 340 338 334 336 336 335 337 339 338 338 336 335 331 335 335 335 335 332 331 331 334 335 332 329 327 329 330 330 333 332 333 334 331 331 332 332 329
336 339 339 337 335 336 335 333 332 331 332 332 329 329 330 335 337 338 340 341 341 343 342 342 340 340 340 337 334 335 335 336 338 336 338 340 339 336 334 333 334 334 334 333 331 335 335 332 327 325 324 324 327 328 331 331 330 328 329 326 326 326
336 335 335 334 335 334 335 334 331 328 329 331 330 334 330 333 335 334 340 340 341 340 340 338 340 340 334 334 333 333 333 335 335 336 336 336 337 337 336 334 335 332 327 330 332 333 332 332 326 326 327 323 318 319 324 328 328 328 328 328 326 324
333 333 335 334 332 333 332 331 330 334 331 332 331 333 335 337 334 333 334 337 342 342 339 337 337 335 336 335 334 333 333 332 336 337 337 336 336 335 336 337 335 332 331 325 328 328 332 331 330 325 318 319 319 319 313 317 321 327 326 323 325 322
331 334 337 335 332 330 329 329 331 333 332 331 334 335 336 333 334 331 333 335 336 338 339 336 337 335 336 334 336 335 335 335 336 337 337 337 337 336 336 336 335 332 331 327 325 327 327 329 330 331 325 318 316 314 314 318 319 322 326 322 320 320
333 335 336 337 334 330 331 330 330 328 330 332 329 333 331 328 328 334 327 336 333 333 334 335 335 335 335 335 336 337 337 335 335 335 335 336 337 338 337 335 333 333 331 331 329 324 324 329 330 329 331 329 326 319 316 320 319 313 324 323 323 320
335 336 339 340 335 333 334 332 331 330 331 332 331 333 337 335 333 329 339 335 333 341 332 334 335 336 335 335 335 335 334 334 333 334 335 336 334 335 334 332 336 335 334 333 333 326 324 325 330 329 330 330 330 328 327 320 316 317 311 317 318 316
334 334 334 336 339 339 336 334 335 334 334 330 329 330 332 330 333 329 332 334 330 337 334 332 337 333 334 335 337 334 333 333 333 333 333 332 334 336 335 335 334 336 335 333 331 328 326 325 325 326 329 328 327 328 328 327 324 322 315 310 309 315
333 333 332 334 337 335 334 336 336 332 327 326 327 329 327 330 331 335 334 341 337 329 332 333 330 334 335 333 335 333 334 335 334 334 329 328 332 331 334 333 334 334 335 333 334 331 331 327 326 326 328 326 328 327 325 326 327 325 321 311 309 310
332 332 333 333 335 334 335 336 334 331 325 326 327 328 328 329 330 336 332 330 334 332 330 336 337 335 335 331 333 335 333 331 332 328 328 328 331 333 333 335 335 337 335 333 333 333 331 332 329 327 330 329 326 325 324 324 324 322 320 320 309 309
332 332 333 332 334 332 334 333 332 329 327 326 328 329 327 327 329 332 327 331 335 333 336 330 333 334 334 332 334 335 333 332 332 332 330 328 331 330 334 335 336 335 334 332 332 331 330 331 330 328 327 328 326 324 322 320 320 320 318 314 310 310
332 332 332 335 334 330 333 332 332 331 328 328 327 327 326 327 327 325 328 330 333 332 330 331 331 330 333 333 335 334 334 332 332 332 331 331 331 331 335 336 334 333 332 333 332 331 331 328 328 327 328 326 326 325 325 322 321 322 319 315 312 310
331 334 334 335 334 332 334 331 332 331 330 330 329 328 328 328 330 328 330 330 328 330 330 328 329 329 331 334 334 334 331 330 331 331 330 328 330 332 334 334 332 330 331 330 330 329 328 327 328 327 324 327 325 323 323 323 328 323 321 320 317 308
332 334 336 336 334 332 333 332 333 333 332 330 330 330 329 328 331 329 329 329 331 329 329 327 328 330 333 332 331 330 330 329 331 330 329 331 330 328 329 330 330 329 329 330 330 329 328 327 326 324 324 315 316 313 313 318 318 321 320 318 316 313
332 334 335 335 334 333 332 333 333 334 332 330 330 330 330 330 331 329 331 330 333 332 327 328 328 329 328 328 331 331 331 330 331 332 331 330 332 330 329 324 325 328 328 328 327 325 324 322 320 319 320 318 314 313 320 315 317 320 319 325 319 313
331 331 333 333 333 333 332 333 333 333 333 331 329 330 327 328 331 333 333 333 331 330 328 327 328 329 329 326 327 328 329 330 330 330 329 329 327 325 325 324 323 322 320 322 322 321 318 319 321 321 320 321 317 316 318 317 317 314 318 316 316 315
332 333 333 333 333 334 334 333 332 333 332 330 330 328 327 329 330 332 333 332 330 326 327 327 327 330 328 329 329 328 326 326 325 323 323 323 324 323 322 322 321 320 319 319 319 318 320 319 319 318 316 317 318 316 315 318 318 318 318 319 319 324
Wind_Speed
8 9 9 8 7 7 8 11 9 11 12 12 12 11 11 12 11 11 10 10 10 7 6 6 6 6 10 7 7 8 8 9 9 9 8 7 7 6 5 5 6 6 6 7 6 6 5 6 5 5 6 6 7 5 6 1 8 9 8 7 7 6
8 9 5 6 5 5 6 8 7 6 7 9 10 11 9 7 9 6 9 5 5 5 5 3 4 7 4 7 8 9 8 9 8 9 8 7 6 4 4 5 6 7 6 6 8 3 4 6 7 6 6 6 4 5 4 3 6 9 9 7 6 6
10 6 6 5 5 5 7 5 7 7 6 8 9 8 6 8 6 6 5 5 5 4 5 4 3 5 5 5 7 9 9 9 9 8 8 7 6 5 4 5 7 7 5 6 4 4 4 4 4 7 5 3 4 5 2 2 8 9 8 7 6 10
11 7 6 5 4 6 6 6 6 6 6 6 7 7 8 7 6 6 5 5 5 4 4 3 5 7 6 5 5 8 9 8 8 8 8 5 5 4 5 7 7 7 4 4 4 5 6 6 4 4 3 4 4 4 2 2 8 7 7 9 7 10
8 8 7 6 6 7 6 5 6 6 6 6 6 6 6 6 6 5 5 5 5 5 4 3 3 3 1 2 4 4 4 4 3 4 7 3 3 3 3 4 4 4 4 4 6 5 4 5 6 6 5 6 6 4 2 7 7 7 7 7 6 9
9 10 8 5 7 7 7 5 6 6 7 6 6 6 6 5 5 4 5 5 4 5 4 3 3 2 2 1 1 2 4 4 4 4 5 1 2 2 3 4 4 4 5 6 5 7 4 2 3 4 6 3 2 2 3 6 8 7 6 6 7 10
9 8 8 9 7 6 7 6 5 6 6 7 6 7 7 5 4 3 5 5 5 3 2 3 3 3 2 0 1 1 1 2 1 1 4 2 2 2 3 4 4 4 5 6 8 4 4 3 3 3 2 3 3 2 3 7 8 7 6 6 7 11
8 6 6 8 7 6 6 6 6 7 6 5 5 8 7 2 5 4 4 5 4 4 3 2 2 2 2 1 2 1 1 1 1 0 2 1 2 2 3 2 4 7 6 7 2 3 3 4 2 0 3 2 1 8 6 6 7 7 6 5 5 8
11 9 8 7 8 7 6 6 5 5 5 5 4 5 10 5 2 1 1 5 5 5 4 3 2 3 1 1 0 2 1 0 1 0 1 1 2 2 3 4 5 6 7 4 3 2 3 4 3 2 2 2 8 4 6 7 4 7 6 5 5 6
12 12 12 8 7 6 6 6 5 4 5 6 5 4 8 5 3 2 0 1 3 4 4 5 4 1 3 3 2 1 2 2 1 1 1 2 2 2 5 6 5 7 4 3 2 1 4 3 3 4 3 5 10 9 8 7 4 3 7 6 6 5
10 10 9 10 6 6 5 5 5 4 3 4 6 8 2 4 7 4 5 4 4 3 4 6 3 3 2 2 1 3 3 1 2 1 1 1 1 2 3 5 9 5 3 2 2 4 5 3 4 5 5 7 9 6 2 2 4 2 4 6 6 5
7 7 6 5 3 6 4 6 7 7 4 7 6 2 7 5 3 2 3 4 3 4 2 6 7 4 2 2 1 2 2 2 2 4 3 3 2 1 1 4 13 8 4 4 2 4 2 5 6 3 6 6 5 5 2 3 4 2 2 5 5 4
7 5 7 2 5 10 8 3 1 6 5 4 7 6 7 7 9 8 5 4 3 3 3 3 6 7 4 4 5 4 2 2 1 1 2 3 2 1 3 4 11 9 3 1 3 4 4 7 8 7 6 5 5 6 4 5 3 2 1 2 3 6
4 7 6 7 8 7 7 3 3 5 4 2 3 4 3 4 4 5 5 5 4 4 4 4 4 6 5 4 4 3 2 0 1 1 3 2 1 1 1 2 6 5 1 1 3 4 6 5 5 7 5 4 4 4 4 5 4 2 2 3 1 3
8 9 10 9 6 7 8 7 7 4 4 3 3 3 4 4 3 4 4 4 4 3 4 5 3 3 4 5 4 3 2 1 1 2 1 2 0 1 2 3 6 10 3 2 6 4 5 5 5 7 5 4 3 3 1 1 3 3 2 2 4 3
11 10 7 7 4 5 6 5 5 4 5 3 1 3 2 3 3 4 5 4 5 4 3 3 4 4 3 2 1 2 2 2 2 1 1 1 1 3 3 3 2 6 10 3 4 3 3 4 4 5 4 4 4 2 1 2 3 2 2 2 2 2
11 8 6 6 5 4 5 4 2 3 4 3 2 2 1 2 1 1 1 3 5 5 4 2 3 4 3 1 2 2 1 2 2 1 2 1 2 2 2 3 4 2 5 9 1 4 4 4 4 5 4 4 3 1 1 1 3 2 3 4 5 0
8 5 6 5 4 3 4 3 2 3 3 2 2 1 2 2 2 2 1 0 4 4 3 4 3 3 3 1 2 3 1 3 3 1 2 2 2 2 4 4 4 2 1 1 4 2 3 4 5 4 2 2 2 2 1 1 1 3 3 0 4 2
6 6 6 5 4 3 3 3 3 2 3 1 1 2 2 2 2 2 1 2 3 3 3 5 4 4 4 2 2 2 3 3 4 3 3 3 2 3 1 1 3 3 3 1 5 8 5 5 4 3 2 3 2 2 0 1 3 2 1 2 5 5
4 6 6 4 3 3 3 3 3 2 2 1 1 2 1 1 2 2 0 2 4 2 4 5 4 4 4 1 2 3 3 4 5 2 3 4 4 3 3 1 0 0 4 3 6 3 1 4 3 3 3 3 3 2 1 1 4 3 2 2 1 7
3 4 4 3 4 4 4 3 3 1 0 1 2 3 4 2 2 4 3 2 3 3 3 3 4 4 6 4 2 2 1 2 2 2 3 3 6 7 4 4 2 1 3 3 3 2 1 4 4 3 3 3 2 3 2 4 0 1 2 1 3 4
4 4 6 6 4 4 3 2 1 3 2 4 4 3 5 4 4 5 4 1 3 1 2 3 4 4 3 5 2 3 4 2 1 1 0 2 3 7 6 4 4 3 2 1 1 0 1 2 1 2 3 2 1 2 2 1 3 2 1 5 5 6
4 5 6 5 4 4 3 4 3 3 8 1 5 4 6 3 4 4 3 3 3 4 1 4 3 3 6 4 3 4 4 4 4 2 1 1 2 5 5 6 5 6 1 1 2 2 1 2 3 1 1 2 2 2 1 1 1 1 1 2 4 7
6 5 5 6 5 4 4 2 4 7 5 7 4 4 4 3 4 5 4 4 2 2 4 3 5 3 5 4 4 4 3 3 1 1 1 2 3 5 4 2 5 6 6 4 1 1 1 2 1 4 2 1 1 0 2 0 1 1 2 3 1 5
6 6 6 5 3 5 5 2 6 2 5 4 2 2 2 3 3 4 3 3 3 4 2 7 5 6 6 1 3 3 2 3 2 1 1 0 1 3 4 3 3 6 5 7 5 2 4 3 5 2 1 3 2 1 1 2 2 0 1 1 5 5
7 6 6 5 4 5 4 6 3 4 2 1 3 2 3 2 3 1 4 3 3 4 3 4 4 9 9 8 5 3 2 3 4 3 2 1 1 0 1 3 3 5 3 4 7 6 3 3 2 1 2 2 1 0 5 2 2 3 0 3 2 6
9 7 7 6 7 7 7 4 5 5 4 3 3 3 2 3 4 4 2 3 3 2 4 3 3 3 3 3 4 4 3 3 4 5 3 1 1 2 3 3 2 4 3 5 4 7 7 4 1 0 1 1 1 1 3 3 2 2 3 3 6 7
7 8 6 4 2 5 5 4 3 3 2 4 5 3 3 4 3 4 3 2 4 1 3 4 2 2 3 3 1 3 4 5 6 5 7 6 4 2 2 2 3 2 2 4 3 4 6 5 3 2 2 1 0 0 2 4 3 1 3 4 5 7
6 7 8 6 3 5 6 4 2 3 5 5 4 3 3 2 3 2 1 1 2 4 6 5 4 2 2 2 1 3 2 2 2 1 7 6 4 2 1 4 4 2 2 4 3 3 2 6 5 3 4 1 1 2 3 2 1 1 1 5 5 6
7 7 8 8 6 6 5 4 3 4 6 4 4 3 3 3 3 0 2 3 2 4 4 2 2 3 1 4 3 2 2 3 4 5 5 6 5 3 4 1 2 2 5 5 3 2 3 2 3 3 2 2 2 2 3 1 0 0 0 1 6 6
9 7 7 8 7 8 5 4 5 6 5 5 4 4 4 3 3 2 2 1 1 2 2 5 3 3 3 4 3 2 2 2 3 4 2 3 3 3 2 2 3 4 4 4 3 4 3 2 3 6 6 2 3 4 4 3 3 2 3 2 6 6
9 9 9 7 7 8 5 6 5 5 5 5 5 4 4 3 3 3 3 2 2 2 3 3 4 3 3 3 1 1 2 4 3 2 2 3 3 4 2 1 4 4 4 4 3 3 3 3 3 3 3 6 4 3 2 3 6 6 4 4 7 6
7 7 8 7 7 7 5 6 6 5 5 4 4 4 3 3 2 3 2 3 3 3 3 4 4 4 1 2 1 0 3 4 3 3 4 4 4 4 2 3 4 4 4 5 5 4 4 3 2 3 2 1 2 3 4 2 1 3 4 3 6 6
10 8 7 8 8 7 5 6 5 5 5 4 4 4 3 3 2 3 2 2 2 4 4 4 3 3 2 2 4 4 4 4 3 3 3 2 4 4 5 5 5 5 5 4 3 2 3 3 3 3 3 5 4 4 4 4 3 5 3 3 1 3
14 12 10 10 9 9 7 7 6 5 5 4 4 3 4 3 2 3 2 2 2 3 5 4 4 4 5 4 3 3 3 4 3 2 2 1 2 3 4 5 4 4 4 3 4 4 4 4 5 4 3 4 6 6 3 1 3 6 1 0 3 6
12 11 11 11 9 8 7 7 7 6 5 5 5 4 5 3 3 2 1 2 3 4 5 5 4 3 3 4 3 3 3 3 2 1 2 2 4 5 7 5 4 6 6 5 6 6 5 4 3 4 4 5 5 4 6 7 3 6 5 7 5 7
9 7 6 8 8 7 7 7 7 5 4 5 4 5 5 4 3 2 2 3 4 5 5 4 3 2 3 3 2 3 4 3 4 4 4 4 4 5 6 5 6 6 7 6 6 6 4 4 4 4 5 4 4 4 5 5 6 6 6 6 5 4
Wind_Direction
133 143 148 148 140 135 128 119 118 119 122 126 128 128 129 128 128 126 121 123 120 118 110 121 135 131 141 140 139 135 141 139 142 144 144 142 144 147 161 187 203 199 196 183 173 180 182 184 191 205 239 257 275 290 264 235 87 97 94 103 105 104
139 143 140 137 135 123 128 126 136 133 131 135 136 135 133 134 132 127 128 105 67 81 119 125 121 140 133 135 139 143 146 146 149 147 142 142 142 146 177 208 224 221 215 201 188 186 201 206 203 204 225 248 276 272 297 11 75 101 102 102 103 103
141 126 142 132 133 135 137 144 147 149 144 146 145 139 140 137 131 133 113 89 76 64 75 89 132 149 135 141 134 145 152 154 155 153 150 148 152 174 203 226 239 243 237 235 220 227 196 179 191 200 222 240 255 275 311 42 73 86 97 102 95 101
139 158 153 147 145 142 152 163 156 153 148 153 149 151 146 140 134 121 110 91 85 86 86 68 109 107 114 118 134 144 155 160 162 158 156 154 164 196 219 244 255 259 254 240 230 226 208 171 168 165 203 221 228 231 195 105 81 95 104 107 102 100
146 168 163 155 172 155 153 175 161 154 157 155 160 153 145 113 116 125 119 101 109 98 91 100 80 72 37 108 150 154 157 164 164 170 167 183 174 192 212 233 235 236 241 231 229 232 216 153 156 172 192 212 210 157 225 87 106 95 93 97 105 101
164 172 164 172 168 156 168 176 155 160 159 160 162 155 128 130 127 112 108 98 90 103 118 107 77 118 102 13 34 184 174 173 179 175 173 331 248 175 197 247 236 208 228 238 231 238 136 169 187 174 182 179 106 196 131 111 99 100 100 102 105 104
170 174 170 174 181 158 173 168 148 163 168 171 171 150 126 119 105 108 118 126 122 114 111 118 134 167 128 99 212 315 250 114 69 92 168 174 229 234 234 245 256 248 227 245 222 195 134 167 225 168 153 136 195 158 123 100 106 105 104 104 104 108
165 155 160 170 163 163 169 157 165 167 172 171 152 111 94 96 113 140 146 121 125 129 121 96 152 118 71 28 359 297 73 57 58 336 26 45 218 223 255 248 258 266 262 235 206 170 163 170 177 77 115 175 189 58 40 88 103 101 108 109 112 112
165 171 160 161 174 168 169 164 159 172 160 153 56 88 111 114 81 76 130 132 148 144 142 146 124 100 111 67 2 308 18 255 146 95 28 9 304 305 254 246 243 246 242 218 203 203 169 133 127 81 33 45 56 87 70 25 49 110 113 122 119 121
167 174 167 167 168 170 162 161 157 105 17 73 80 63 120 134 112 149 328 146 166 149 138 127 123 92 147 183 213 203 243 197 155 91 216 237 38 342 316 303 270 249 223 227 183 182 94 118 99 70 57 57 49 12 35 43 44 11 119 113 115 132
178 165 161 170 164 162 130 100 59 53 172 116 129 130 78 137 152 206 183 187 156 137 138 124 131 168 155 159 197 226 213 194 136 145 242 79 56 300 307 293 286 293 229 298 174 120 135 142 112 68 45 68 85 60 11 71 69 47 105 117 123 139
179 158 128 162 131 135 124 101 134 189 155 135 106 74 160 171 118 240 182 159 142 139 132 129 154 151 138 243 254 262 248 222 184 143 164 139 131 155 56 336 290 256 348 229 194 102 60 76 76 83 84 62 91 126 105 69 44 4 348 118 132 126
150 118 107 78 72 51 39 61 38 19 341 160 141 176 175 168 152 182 165 145 160 148 132 117 129 137 160 193 216 220 225 255 76 117 101 93 82 197 96 281 260 254 228 274 64 91 92 72 74 81 79 87 95 107 140 133 160 169 201 67 110 134
77 102 64 72 75 107 135 140 138 145 203 246 145 165 155 113 133 142 143 150 163 162 155 136 143 142 156 189 235 197 175 123 150 115 104 121 187 243 55 143 287 267 281 45 67 61 75 72 76 82 80 98 96 113 139 147 143 220 141 141 93 129
101 83 103 133 160 140 153 138 133 159 175 224 183 137 146 132 152 140 131 144 166 156 150 142 138 132 149 175 192 156 119 123 238 171 142 130 146 62 33 35 353 316 324 25 68 63 82 89 96 96 93 89 104 80 3 110 118 125 85 100 153 139
115 126 136 120 130 144 136 120 143 171 165 193 177 128 116 140 150 151 144 155 171 164 173 158 144 131 122 162 135 80 112 160 211 106 96 141 129 75 41 37 82 347 327 314 120 98 89 97 92 98 107 100 77 81 14 34 72 98 118 93 98 125
109 125 137 146 144 116 116 163 129 104 131 85 58 91 103 73 55 14 97 147 155 155 161 150 138 125 124 118 88 89 75 123 251 158 124 149 85 119 105 69 36 35 27 311 103 92 73 91 93 79 72 82 100 113 133 127 158 143 172 160 134 142
108 122 110 106 98 96 95 78 57 81 81 116 145 106 88 70 60 41 322 73 147 140 154 140 136 123 100 121 104 126 111 96 252 183 177 129 140 131 122 144 156 176 168 243 359 68 108 85 64 72 75 112 105 62 350 233 86 94 76 104 125 123
100 112 102 123 128 107 115 139 133 116 120 115 151 95 135 134 143 169 182 230 113 125 137 112 111 130 140 131 189 120 96 152 242 205 163 158 149 81 6 151 129 126 137 352 34 1 38 65 77 92 77 50 82 126 272 71 40 82 144 201 146 169
117 122 124 120 113 96 71 19 55 56 41 355 116 148 154 182 158 150 223 84 121 136 139 129 140 137 129 94 123 105 142 153 212 191 187 160 151 129 181 164 145 136 94 50 60 305 112 103 101 101 89 75 41 54 154 236 146 190 195 146 146 91
124 128 107 79 60 57 62 34 16 3 312 227 236 206 172 164 115 69 82 32 124 123 125 132 129 135 123 174 153 119 181 174 212 215 171 186 157 164 206 155 155 78 112 124 174 208 139 113 113 79 66 77 48 5 78 23 36 155 212 126 91 95
27 65 58 57 71 67 48 56 279 260 264 200 209 151 81 66 57 79 85 353 86 111 111 121 134 136 134 128 113 195 162 102 253 267 168 204 152 143 162 174 170 133 91 160 132 47 56 89 38 156 150 107 107 75 42 35 317 148 170 148 125 123
83 73 82 79 54 61 31 29 351 322 276 113 36 43 100 98 110 91 93 115 110 105 240 128 140 116 115 120 171 233 111 143 197 177 180 191 163 137 167 171 154 105 63 353 48 26 44 27 134 92 42 124 163 146 20 6 309 37 341 10 160 153
123 120 102 90 112 120 101 52 325 268 27 52 74 51 58 83 93 121 100 72 79 110 146 88 61 62 94 93 150 221 139 133 220 235 178 177 176 157 143 168 156 139 151 149 197 122 272 185 133 142 133 245 99 109 132 187 144 305 140 212 205 65
119 110 98 114 124 114 82 16 246 23 49 65 44 54 96 73 54 86 122 126 101 91 75 112 132 97 79 62 224 213 180 123 122 267 299 323 211 167 158 187 167 146 154 164 146 137 262 162 182 246 165 135 107 77 228 141 141 276 253 101 85 102
126 129 136 145 142 109 156 194 142 96 121 142 134 152 91 141 184 204 94 125 116 113 93 100 137 140 153 181 159 144 146 153 149 177 193 191 242 273 205 185 184 115 156 137 122 130 230 295 201 258 310 1 315 167 154 178 125 147 349 5 68 69
138 136 139 143 164 178 179 167 164 174 183 170 131 83 77 50 65 89 57 81 78 101 125 108 95 110 111 138 153 159 181 188 169 158 162 165 229 195 197 194 122 133 143 145 154 130 181 222 167 179 263 280 339 27 102 125 177 160 112 56 56 62
137 138 125 119 196 169 144 169 179 165 145 104 98 99 70 47 43 65 73 80 123 207 107 106 112 108 154 132 161 178 188 183 181 179 162 181 196 198 183 191 145 147 183 148 152 136 152 161 212 166 177 234 56 20 74 60 105 154 124 114 70 51
142 134 134 151 173 135 145 170 133 98 96 107 108 114 125 120 62 57 67 349 45 75 56 56 75 82 52 107 76 32 347 348 326 189 178 155 173 161 161 128 119 141 152 89 96 132 131 135 222 160 162 151 197 112 83 81 97 121 153 132 113 98
151 147 144 156 162 154 157 137 124 123 129 137 142 130 108 92 105 33 61 46 42 74 103 103 72 31 30 65 74 117 28 12 27 26 34 62 71 63 77 52 132 130 96 109 107 107 98 106 121 126 19 149 110 111 98 91 169 75 322 283 130 129
148 142 156 160 166 153 151 143 134 140 141 140 130 118 107 125 135 119 111 124 85 110 103 98 88 54 48 69 28 82 162 100 27 10 43 99 112 116 81 99 96 86 86 96 99 101 112 114 118 126 169 130 163 164 155 174 182 198 200 139 110 137
140 152 161 164 149 149 154 145 136 134 128 125 132 134 144 133 154 145 144 167 108 110 103 101 99 88 65 108 151 314 33 80 62 86 79 73 73 70 60 108 86 81 84 85 99 89 74 102 103 119 127 170 164 186 172 195 189 172 197 166 134 147
149 161 162 156 148 151 147 142 137 127 121 131 133 129 138 144 163 122 151 126 158 119 112 130 110 105 100 114 143 355 76 83 45 35 69 74 62 81 74 48 70 66 63 67 68 86 89 89 130 106 156 169 146 155 181 200 178 186 146 140 125 144
159 170 163 152 151 154 155 148 131 131 134 140 124 122 137 133 131 130 150 136 160 136 129 101 111 125 174 111 62 66 58 77 79 57 37 47 108 110 101 102 100 99 88 103 112 115 94 78 52 42 49 63 64 64 33 18 3 51 101 108 135 103
164 170 166 156 156 160 157 142 134 146 133 133 128 136 124 113 115 103 119 166 109 102 99 98 79 66 65 67 74 63 66 53 55 84 102 53 52 119 111 85 83 100 105 95 77 60 54 56 51 49 53 65 59 30 19 6 29 360 335 130 107 111
156 162 167 152 155 154 148 137 138 150 149 131 137 118 106 108 99 112 122 108 90 86 88 84 81 93 79 86 90 99 110 116 109 74 69 66 52 61 80 90 91 89 90 96 98 83 72 64 48 36 44 50 54 36 23 16 34 34 357 66 69 74
142 147 157 148 147 151 134 139 145 153 129 123 118 118 120 109 105 88 82 68 83 85 83 87 101 99 120 124 107 84 76 70 52 61 67 71 69 69 71 68 65 64 61 57 70 81 77 72 67 73 91 94 83 70 47 24 30 21 13 41 47 73